sat.trackr.live / text

‹ back to catalog

ONEWEB-0565

NORAD 55146 · 2023-004G

PAYLOAD ACTIVE UNKNOWN

§ Identity

Operator
Country
UK
Launch date
2023-01-10
Launch site
AFETR
Launch vehicle
Mass (kg)
RCS (m²)

Purposes: comms

External: N2YO · Heavens-Above · Gunter

§ Orbital elements

Epoch: 2026-05-25T01:51:07.996032Z

Period
109.20 min
Inclination
87.9152°
Eccentricity
0.0001547
Mean motion
13.18685446 rev/d
Perigee alt
1,188.6 km
Apogee alt
1,190.9 km
Semi-major
7,567.9 km
B*
-7.5649e-5
RAAN
340.0896°
Arg perigee
100.0898°
Mean anomaly
260.0409°
Rev number
16,665

§ Raw data

ONEWEB-05651 55146U 23004G   26145.07717588 -.00000017  00000+0 -75649-4 0  99952 55146  87.9152 340.0896 0001547 100.0898 260.0409 13.18685446166659

JSON: /api/v1/satellites/55146 · /tle

For live sub-satellite position, see the globe view (requires WebGL).

§ Visibility from observer

Set your observer location to see the next 7 days of passes ≥ 10°. The values pass through the URL so the page stays shareable.

No JS? Fill the form by hand. The geolocation button needs JavaScript.